| time (UTC) | temp C | wind direction | speed KPH | gust KPH | rain 1hr cm | rain 24hr cm | rain mn cm | humidity % | barometer mb |
| 20260509202059 | 17 | 225 | 1.6 | 1.6 | 0.00 | 0.43 | 0.43 | 69 | 1007.7 |
| 20260509201558 | 17 | 218 | 1.6 | 3.2 | 0.00 | 0.43 | 0.43 | 70 | 1007.8 |
| 20260509201057 | 17 | 263 | 4.8 | 9.7 | 0.00 | 0.43 | 0.43 | 67 | 1007.7 |
| 20260509200556 | 17 | 270 | 1.6 | 6.4 | 0.00 | 0.43 | 0.43 | 71 | 1007.7 |
| 20260509200053 | 17 | 245 | 0.0 | 4.8 | 0.00 | 0.43 | 0.43 | 69 | 1007.9 |
| 20260509195548 | 18 | 162 | 3.2 | 9.7 | 0.00 | 0.43 | 0.43 | 68 | 1007.7 |
| 20260509195043 | 17 | 227 | 1.6 | 3.2 | 0.00 | 0.43 | 0.43 | 71 | 1007.8 |
| 20260509194538 | 17 | 241 | 1.6 | 3.2 | 0.00 | 0.43 | 0.43 | 71 | 1008.1 |
| 20260509194036 | 17 | 242 | 0.0 | 1.6 | 0.00 | 0.43 | 0.43 | 71 | 1008.0 |
| 20260509193536 | 17 | 237 | 0.0 | 6.4 | 0.00 | 0.43 | 0.43 | 70 | 1008.2 |
| 20260509193033 | 18 | 214 | 3.2 | 4.8 | 0.00 | 0.43 | 0.43 | 74 | 1008.1 |
| 20260509192530 | 17 | 234 | 0.0 | 4.8 | 0.00 | 0.43 | 0.43 | 70 | 1008.2 |
| 20260509192025 | 17 | 255 | 4.8 | 4.8 | 0.00 | 0.43 | 0.43 | 68 | 1008.1 |
| 20260509191519 | 17 | 205 | 1.6 | 4.8 | 0.00 | 0.43 | 0.43 | 69 | 1008.2 |
| 20260509191015 | 17 | 210 | 0.0 | 1.6 | 0.00 | 0.43 | 0.43 | 73 | 1008.3 |
| 20260509190512 | 16 | 159 | 8.0 | 11.3 | 0.00 | 0.43 | 0.43 | 72 | 1008.1 |
| 20260509190010 | 17 | 230 | 0.0 | 4.8 | 0.00 | 0.43 | 0.43 | 72 | 1008.4 |
| 20260509185507 | 17 | 246 | 0.0 | 3.2 | 0.00 | 0.43 | 0.43 | 76 | 1008.5 |
| 20260509185004 | 16 | 230 | 0.0 | 3.2 | 0.00 | 0.43 | 0.43 | 77 | 1008.4 |
| 20260509184503 | 16 | 257 | 0.0 | 4.8 | 0.00 | 0.43 | 0.43 | 76 | 1008.5 |
| 20260509183959 | 16 | 255 | 0.0 | 4.8 | 0.00 | 0.43 | 0.43 | 76 | 1008.8 |
| 20260509183458 | 16 | 214 | 1.6 | 9.7 | 0.00 | 0.43 | 0.43 | 76 | 1008.6 |
| 20260509182955 | 16 | 228 | 1.6 | 4.8 | 0.00 | 0.43 | 0.43 | 79 | 1008.8 |
| 20260509182451 | 16 | 207 | 0.0 | 3.2 | 0.00 | 0.43 | 0.43 | 80 | 1008.8 |
| 20260509181949 | 16 | 210 | 0.0 | 3.2 | 0.00 | 0.43 | 0.43 | 78 | 1008.8 |
| 20260509181447 | 16 | 224 | 0.0 | 9.7 | 0.00 | 0.43 | 0.43 | 82 | 1008.9 |
| 20260509180944 | 15 | 202 | 0.0 | 6.4 | 0.00 | 0.43 | 0.43 | 82 | 1008.8 |
| 20260509180439 | 15 | 267 | 1.6 | 3.2 | 0.00 | 0.43 | 0.43 | 82 | 1008.8 |
| 20260509175936 | 15 | 225 | 3.2 | 3.2 | 0.00 | 0.43 | 0.43 | 81 | 1008.8 |
| 20260509175433 | 15 | 225 | 0.0 | 0.0 | 0.00 | 0.43 | 0.43 | 84 | 1008.6 |
| 20260509174929 | 14 | 247 | 0.0 | 0.0 | 0.00 | 0.43 | 0.43 | 86 | 1008.5 |
| 20260509174425 | 13 | 247 | 0.0 | 0.0 | 0.00 | 0.43 | 0.43 | 86 | 1008.8 |
| 20260509173921 | 14 | 246 | 0.0 | 0.0 | 0.00 | 0.43 | 0.43 | 85 | 1008.6 |
| 20260509173420 | 14 | 246 | 0.0 | 1.6 | 0.00 | 0.43 | 0.43 | 86 | 1008.4 |
| 20260509172917 | 15 | 246 | 1.6 | 1.6 | 0.00 | 0.43 | 0.43 | 85 | 1008.6 |
| 20260509172414 | 15 | 237 | 1.6 | 3.2 | 0.00 | 0.43 | 0.43 | 83 | 1008.6 |
| 20260509171910 | 15 | 229 | 0.0 | 0.0 | 0.00 | 0.43 | 0.43 | 84 | 1008.8 |
| 20260509171406 | 14 | 229 | 0.0 | 1.6 | 0.00 | 0.43 | 0.43 | 85 | 1008.8 |
| 20260509170903 | 14 | 230 | 3.2 | 4.8 | 0.00 | 0.43 | 0.43 | 85 | 1008.8 |
| 20260509170358 | 14 | 219 | 3.2 | 3.2 | 0.00 | 0.43 | 0.43 | 86 | 1008.8 |
| 20260509165854 | 14 | 220 | 1.6 | 6.4 | 0.00 | 0.43 | 0.43 | 86 | 1008.8 |
| 20260509165348 | 15 | 239 | 0.0 | 3.2 | 0.00 | 0.43 | 0.43 | 87 | 1008.5 |
| 20260509164839 | 14 | 253 | 1.6 | 4.8 | 0.00 | 0.43 | 0.43 | 84 | 1008.3 |
| 20260509164335 | 14 | 256 | 4.8 | 9.7 | 0.00 | 0.43 | 0.43 | 87 | 1008.5 |
| 20260509163832 | 13 | 250 | 3.2 | 6.4 | 0.00 | 0.43 | 0.43 | 89 | 1008.8 |
| 20260509163328 | 13 | 240 | 1.6 | 1.6 | 0.00 | 0.43 | 0.43 | 94 | 1008.8 |
| 20260509162828 | 13 | 211 | 0.0 | 4.8 | 0.00 | 0.43 | 0.43 | 93 | 1008.5 |
| 20260509162326 | 13 | 256 | 3.2 | 9.7 | 0.00 | 0.43 | 0.43 | 94 | 1008.6 |
| 20260509161822 | 13 | 236 | 0.0 | 0.0 | 0.00 | 0.43 | 0.43 | 94 | 1008.5 |
| 20260509161319 | 12 | 237 | 0.0 | 4.8 | 0.00 | 0.43 | 0.43 | 95 | 1008.4 |
| 20260509160814 | 12 | 234 | 0.0 | 0.0 | 0.00 | 0.43 | 0.43 | 97 | 1008.6 |
| 20260509160310 | 12 | 232 | 0.0 | 1.6 | 0.00 | 0.43 | 0.43 | 98 | 1008.6 |
| 20260509155806 | 12 | 241 | 0.0 | 0.0 | 0.00 | 0.43 | 0.43 | 99 | 1008.5 |
| 20260509155306 | 12 | 240 | 0.0 | 1.6 | 0.00 | 0.43 | 0.43 | 99 | 1008.6 |
| 20260509154758 | 11 | 234 | 0.0 | 0.0 | 0.00 | 0.43 | 0.43 | 99 | 1008.6 |
| 20260509154256 | 11 | 228 | 0.0 | 0.0 | 0.00 | 0.43 | 0.43 | 99 | 1008.8 |
| 20260509153752 | 11 | 228 | 0.0 | 0.0 | 0.00 | 0.43 | 0.43 | 99 | 1008.5 |
| 20260509153248 | 11 | 228 | 0.0 | 0.0 | 0.18 | 0.43 | 0.43 | 99 | 1008.8 |
| 20260509152745 | 11 | 228 | 0.0 | 0.0 | 0.18 | 0.43 | 0.43 | 99 | 1008.5 |
| 20260509152242 | 11 | 233 | 0.0 | 0.0 | 0.00 | 0.41 | 0.41 | 99 | 1008.6 |
| 20260509151739 | 11 | 232 | 0.0 | 0.0 | 0.18 | 0.41 | 0.41 | 99 | 1008.6 |
| 20260509151235 | 11 | 246 | 0.0 | 0.0 | 0.30 | 0.41 | 0.41 | 99 | 1008.8 |
| 20260509150734 | 11 | 242 | 0.0 | 0.0 | 0.30 | 0.38 | 0.38 | 99 | 1008.8 |
| 20260509150232 | 11 | 246 | 0.0 | 1.6 | 0.18 | 0.36 | 0.36 | 99 | 1008.5 |
| 20260509145729 | 11 | 249 | 0.0 | 3.2 | 0.00 | 0.33 | 0.33 | 99 | 1008.5 |
| 20260509145228 | 11 | 206 | 1.6 | 4.8 | 0.00 | 0.33 | 0.33 | 99 | 1008.8 |
| 20260509144725 | 11 | 231 | 0.0 | 0.0 | 0.00 | 0.33 | 0.33 | 99 | 1008.8 |
| 20260509144222 | 11 | 234 | 0.0 | 0.0 | 0.00 | 0.33 | 0.33 | 99 | 1008.8 |
| 20260509143719 | 11 | 227 | 1.6 | 1.6 | 0.00 | 0.33 | 0.33 | 99 | 1008.6 |
| 20260509143217 | 11 | 245 | 0.0 | 0.0 | 0.00 | 0.33 | 0.33 | 99 | 1008.8 |
| 20260509142712 | 11 | 247 | 0.0 | 3.2 | 0.13 | 0.33 | 0.33 | 99 | 1008.6 |
| 20260509142209 | 11 | 238 | 0.0 | 3.2 | 0.00 | 0.30 | 0.30 | 99 | 1008.8 |
| 20260509141704 | 10 | 246 | 0.0 | 0.0 | 0.00 | 0.30 | 0.30 | 99 | 1008.4 |
| 20260509141202 | 10 | 228 | 0.0 | 0.0 | 0.00 | 0.30 | 0.30 | 99 | 1008.8 |
| 20260509140658 | 10 | 233 | 1.6 | 1.6 | 0.00 | 0.30 | 0.30 | 99 | 1008.8 |
| 20260509140156 | 10 | 227 | 0.0 | 1.6 | 0.00 | 0.30 | 0.30 | 99 | 1008.8 |
| 20260509135653 | 10 | 235 | 0.0 | 0.0 | 0.00 | 0.30 | 0.30 | 99 | 1009.0 |
| 20260509135151 | 10 | 233 | 0.0 | 0.0 | 0.00 | 0.30 | 0.30 | 99 | 1008.8 |
| 20260509134647 | 10 | 229 | 0.0 | 0.0 | 0.00 | 0.30 | 0.30 | 99 | 1008.8 |
| 20260509134145 | 10 | 241 | 0.0 | 0.0 | 0.00 | 0.30 | 0.30 | 99 | 1008.8 |
| 20260509133642 | 10 | 232 | 0.0 | 0.0 | 0.18 | 0.30 | 0.30 | 99 | 1008.8 |
| 20260509133139 | 10 | 233 | 0.0 | 0.0 | 0.30 | 0.30 | 0.30 | 99 | 1008.8 |
| 20260509132637 | 10 | 233 | 0.0 | 0.0 | 0.43 | 0.28 | 0.28 | 99 | 1009.0 |
| 20260509132135 | 10 | 233 | 0.0 | 0.0 | 0.48 | 0.25 | 0.25 | 99 | 1009.2 |
| 20260509131631 | 10 | 232 | 0.0 | 0.0 | 0.30 | 0.20 | 0.20 | 99 | 1009.0 |
| 20260509131128 | 10 | 234 | 0.0 | 0.0 | 0.13 | 0.18 | 0.18 | 99 | 1009.0 |
| 20260509130624 | 10 | 229 | 0.0 | 0.0 | 0.18 | 0.15 | 0.15 | 99 | 1009.0 |
| 20260509130121 | 10 | 243 | 1.6 | 3.2 | 0.18 | 0.15 | 0.15 | 99 | 1009.0 |
| 20260509125617 | 10 | 227 | 0.0 | 0.0 | 0.00 | 0.13 | 0.13 | 99 | 1009.0 |
| 20260509125114 | 10 | 227 | 0.0 | 1.6 | 0.00 | 0.13 | 0.13 | 99 | 1009.1 |
| 20260509124610 | 10 | 244 | 0.0 | 0.0 | 0.00 | 0.13 | 0.13 | 99 | 1008.9 |
| 20260509124108 | 10 | 232 | 0.0 | 0.0 | 0.00 | 0.13 | 0.13 | 99 | 1008.9 |
| 20260509123606 | 10 | 230 | 0.0 | 1.6 | 0.00 | 0.13 | 0.13 | 99 | 1009.0 |
| 20260509123102 | 10 | 245 | 0.0 | 0.0 | 0.00 | 0.13 | 0.13 | 99 | 1009.1 |
| 20260509122558 | 10 | 223 | 0.0 | 0.0 | 0.18 | 0.13 | 0.13 | 99 | 1009.0 |
| 20260509122055 | 10 | 223 | 0.0 | 0.0 | 0.18 | 0.13 | 0.13 | 99 | 1009.1 |
| 20260509121552 | 10 | 223 | 0.0 | 0.0 | 0.00 | 0.10 | 0.10 | 99 | 1009.2 |
| 20260509121049 | 10 | 223 | 0.0 | 0.0 | 0.00 | 0.10 | 0.10 | 99 | 1009.1 |
| 20260509120547 | 10 | 222 | 0.0 | 1.6 | 0.13 | 0.10 | 0.10 | 99 | 1009.2 |
| 20260509120046 | 10 | 223 | 0.0 | 0.0 | 0.30 | 0.10 | 0.10 | 99 | 1009.1 |
| 20260509115542 | 10 | 223 | 0.0 | 0.0 | 0.18 | 0.08 | 0.08 | 99 | 1009.0 |
| 20260509115040 | 10 | 223 | 0.0 | 0.0 | 0.00 | 0.05 | 0.05 | 99 | 1009.2 |
| 20260509114538 | 10 | 222 | 0.0 | 0.0 | 0.13 | 0.05 | 0.05 | 99 | 1009.1 |
| 20260509114037 | 9 | 243 | 0.0 | 0.0 | 0.13 | 0.05 | 0.05 | 99 | 1008.8 |
| 20260509113534 | 9 | 243 | 0.0 | 0.0 | 0.00 | 0.03 | 0.03 | 99 | 1009.1 |
| 20260509113032 | 9 | 243 | 0.0 | 0.0 | 0.00 | 0.03 | 0.03 | 99 | 1009.1 |
| 20260509112528 | 9 | 243 | 0.0 | 0.0 | 0.00 | 0.03 | 0.03 | 99 | 1009.0 |
| 20260509112025 | 9 | 243 | 0.0 | 0.0 | 0.00 | 0.03 | 0.03 | 99 | 1008.9 |
| 20260509111522 | 9 | 243 | 0.0 | 0.0 | 0.00 | 0.03 | 0.03 | 99 | 1008.9 |
| 20260509111019 | 9 | 243 | 0.0 | 0.0 | 0.00 | 0.03 | 0.03 | 99 | 1009.1 |
| 20260509110516 | 8 | 243 | 0.0 | 0.0 | 0.00 | 0.03 | 0.03 | 99 | 1008.8 |
| 20260509110013 | 8 | 243 | 0.0 | 0.0 | 0.00 | 0.03 | 0.03 | 99 | 1008.9 |
| 20260509105511 | 8 | 243 | 0.0 | 0.0 | 0.00 | 0.03 | 0.03 | 99 | 1008.9 |
| 20260509105009 | 8 | 243 | 0.0 | 0.0 | 0.00 | 0.03 | 0.03 | 99 | 1009.0 |
| 20260509104505 | 8 | 243 | 0.0 | 0.0 | 0.00 | 0.03 | 0.03 | 99 | 1009.0 |
| 20260509104002 | 8 | 243 | 0.0 | 0.0 | 0.00 | 0.03 | 0.03 | 99 | 1008.8 |
| 20260509103500 | 8 | 243 | 0.0 | 0.0 | 0.00 | 0.03 | 0.03 | 99 | 1009.0 |
| 20260509102958 | 8 | 243 | 0.0 | 0.0 | 0.00 | 0.03 | 0.03 | 99 | 1009.0 |
| 20260509102455 | 8 | 243 | 0.0 | 0.0 | 0.00 | 0.03 | 0.03 | 99 | 1009.1 |
| 20260509101951 | 8 | 243 | 0.0 | 0.0 | 0.00 | 0.03 | 0.03 | 99 | 1008.9 |
| 20260509101448 | 8 | 243 | 0.0 | 0.0 | 0.00 | 0.03 | 0.03 | 99 | 1008.8 |
| 20260509100945 | 8 | 243 | 0.0 | 0.0 | 0.00 | 0.03 | 0.03 | 99 | 1008.9 |
| 20260509100442 | 8 | 243 | 0.0 | 0.0 | 0.00 | 0.03 | 0.03 | 99 | 1008.9 |
| 20260509095939 | 8 | 243 | 0.0 | 0.0 | 0.00 | 0.03 | 0.03 | 99 | 1008.6 |
| 20260509095436 | 8 | 243 | 0.0 | 0.0 | 0.00 | 0.03 | 0.03 | 99 | 1009.0 |
| 20260509094933 | 8 | 243 | 0.0 | 0.0 | 0.00 | 0.03 | 0.03 | 99 | 1009.2 |
| 20260509094429 | 8 | 243 | 0.0 | 0.0 | 0.00 | 0.03 | 0.03 | 99 | 1009.1 |
| 20260509093927 | 8 | 243 | 0.0 | 0.0 | 0.00 | 0.03 | 0.03 | 99 | 1009.4 |
| 20260509093424 | 8 | 243 | 0.0 | 0.0 | 0.00 | 0.03 | 0.03 | 99 | 1009.3 |
| 20260509092923 | 8 | 243 | 0.0 | 0.0 | 0.00 | 0.03 | 0.03 | 99 | 1009.3 |
| 20260509092420 | 8 | 243 | 0.0 | 0.0 | 0.00 | 0.03 | 0.03 | 99 | 1009.2 |
| 20260509091919 | 8 | 243 | 0.0 | 0.0 | 0.00 | 0.03 | 0.03 | 99 | 1009.4 |
| 20260509091415 | 8 | 243 | 0.0 | 0.0 | 0.00 | 0.03 | 0.03 | 99 | 1009.4 |
| 20260509090912 | 8 | 243 | 0.0 | 0.0 | 0.00 | 0.03 | 0.03 | 99 | 1009.5 |
| 20260509090409 | 8 | 243 | 0.0 | 0.0 | 0.00 | 0.03 | 0.03 | 99 | 1009.3 |
| 20260509085907 | 8 | 243 | 0.0 | 0.0 | 0.00 | 0.03 | 0.03 | 99 | 1009.3 |
| 20260509085404 | 8 | 243 | 0.0 | 0.0 | 0.00 | 0.03 | 0.03 | 99 | 1009.4 |
| 20260509084900 | 8 | 243 | 0.0 | 0.0 | 0.00 | 0.03 | 0.03 | 99 | 1009.4 |
| 20260509084357 | 8 | 243 | 0.0 | 0.0 | 0.00 | 0.03 | 0.03 | 99 | 1009.4 |
| 20260509083855 | 8 | 243 | 0.0 | 0.0 | 0.00 | 0.03 | 0.03 | 99 | 1009.6 |
| 20260509083351 | 8 | 243 | 0.0 | 0.0 | 0.00 | 0.03 | 0.03 | 99 | 1009.4 |
| 20260509082848 | 8 | 243 | 0.0 | 0.0 | 0.00 | 0.03 | 0.03 | 99 | 1009.3 |
| 20260509082345 | 8 | 243 | 0.0 | 0.0 | 0.00 | 0.03 | 0.03 | 99 | 1009.3 |
| 20260509081842 | 8 | 243 | 0.0 | 0.0 | 0.00 | 0.03 | 0.03 | 99 | 1009.2 |
| 20260509081339 | 8 | 243 | 0.0 | 0.0 | 0.00 | 0.03 | 0.03 | 99 | 1009.2 |
| 20260509080837 | 8 | 243 | 0.0 | 0.0 | 0.00 | 0.03 | 0.03 | 99 | 1009.3 |
| 20260509080335 | 8 | 243 | 0.0 | 0.0 | 0.00 | 0.03 | 0.03 | 99 | 1009.4 |
| 20260509075833 | 8 | 243 | 0.0 | 0.0 | 0.00 | 0.03 | 0.03 | 99 | 1009.4 |
| 20260509075330 | 8 | 243 | 0.0 | 0.0 | 0.00 | 0.03 | 0.03 | 99 | 1009.4 |
| 20260509074827 | 8 | 243 | 0.0 | 0.0 | 0.00 | 0.03 | 0.03 | 99 | 1009.3 |
| 20260509074324 | 8 | 243 | 0.0 | 0.0 | 0.00 | 0.03 | 0.03 | 99 | 1009.5 |
| 20260509073820 | 8 | 243 | 0.0 | 0.0 | 0.00 | 0.03 | 0.03 | 99 | 1009.4 |
| 20260509073317 | 8 | 243 | 0.0 | 0.0 | 0.00 | 0.03 | 0.03 | 99 | 1009.5 |
| 20260509072814 | 8 | 243 | 0.0 | 0.0 | 0.00 | 0.03 | 0.03 | 99 | 1009.6 |
| 20260509072310 | 8 | 243 | 0.0 | 0.0 | 0.00 | 0.03 | 0.03 | 99 | 1009.6 |
| 20260509071807 | 8 | 243 | 0.0 | 0.0 | 0.00 | 0.03 | 0.03 | 99 | 1009.4 |
| 20260509071304 | 8 | 243 | 0.0 | 0.0 | 0.00 | 0.03 | 0.03 | 99 | 1009.3 |
| 20260509070801 | 8 | 247 | 0.0 | 0.0 | 0.00 | 0.03 | 0.03 | 99 | 1009.4 |
| 20260509070257 | 8 | 248 | 0.0 | 0.0 | 0.00 | 0.03 | 0.03 | 99 | 1009.3 |
| 20260509065754 | 8 | 248 | 0.0 | 0.0 | 0.00 | 0.03 | 0.03 | 99 | 1009.3 |
| 20260509065250 | 8 | 248 | 0.0 | 0.0 | 0.00 | 0.03 | 0.03 | 99 | 1009.3 |
| 20260509064746 | 8 | 248 | 0.0 | 0.0 | 0.00 | 0.03 | 0.03 | 99 | 1009.4 |
| 20260509064244 | 8 | 236 | 0.0 | 0.0 | 0.00 | 0.03 | 0.03 | 99 | 1009.6 |
| 20260509063741 | 8 | 236 | 0.0 | 0.0 | 0.00 | 0.03 | 0.03 | 99 | 1009.7 |
| 20260509063237 | 8 | 236 | 0.0 | 0.0 | 0.00 | 0.03 | 0.03 | 99 | 1009.6 |
| 20260509062735 | 8 | 236 | 0.0 | 0.0 | 0.00 | 0.03 | 0.03 | 99 | 1009.6 |
| 20260509062232 | 8 | 236 | 0.0 | 0.0 | 0.00 | 0.03 | 0.03 | 99 | 1009.8 |
| 20260509061729 | 8 | 236 | 0.0 | 0.0 | 0.00 | 0.03 | 0.03 | 99 | 1010.1 |
| 20260509061227 | 8 | 236 | 0.0 | 0.0 | 0.00 | 0.03 | 0.03 | 99 | 1010.1 |
| 20260509060724 | 8 | 236 | 0.0 | 0.0 | 0.00 | 0.03 | 0.03 | 99 | 1010.2 |
| 20260509060220 | 8 | 236 | 0.0 | 0.0 | 0.00 | 0.03 | 0.03 | 99 | 1010.3 |
| 20260509055716 | 8 | 236 | 0.0 | 0.0 | 0.00 | 0.03 | 0.03 | 99 | 1010.1 |
| 20260509055212 | 8 | 236 | 0.0 | 0.0 | 0.00 | 0.03 | 0.03 | 99 | 1010.1 |
| 20260509054708 | 8 | 236 | 0.0 | 0.0 | 0.00 | 0.03 | 0.03 | 99 | 1010.2 |
| 20260509054206 | 8 | 236 | 0.0 | 0.0 | 0.00 | 0.03 | 0.03 | 99 | 1010.3 |
| 20260509053704 | 8 | 236 | 0.0 | 0.0 | 0.00 | 0.03 | 0.03 | 99 | 1010.4 |
| 20260509053201 | 8 | 236 | 0.0 | 0.0 | 0.00 | 0.03 | 0.03 | 99 | 1010.5 |
| 20260509052659 | 8 | 236 | 0.0 | 0.0 | 0.00 | 0.03 | 0.03 | 99 | 1010.6 |
| 20260509052156 | 8 | 236 | 0.0 | 0.0 | 0.00 | 0.03 | 0.03 | 99 | 1010.5 |
| 20260509051654 | 8 | 236 | 0.0 | 0.0 | 0.00 | 0.03 | 0.03 | 99 | 1010.5 |
| 20260509051151 | 8 | 236 | 0.0 | 0.0 | 0.00 | 0.03 | 0.03 | 99 | 1010.4 |
| 20260509050648 | 8 | 236 | 0.0 | 0.0 | 0.00 | 0.03 | 0.03 | 99 | 1010.6 |
| 20260509050144 | 8 | 236 | 0.0 | 0.0 | 0.00 | 0.03 | 0.03 | 99 | 1010.6 |
| 20260509045642 | 8 | 236 | 0.0 | 0.0 | 0.00 | 0.03 | 0.03 | 99 | 1010.6 |
| 20260509045138 | 8 | 236 | 0.0 | 0.0 | 0.00 | 0.03 | 0.03 | 99 | 1010.6 |
| 20260509044636 | 8 | 236 | 0.0 | 0.0 | 0.00 | 0.03 | 0.03 | 99 | 1010.9 |
| 20260509044133 | 8 | 236 | 1.6 | 1.6 | 0.00 | 0.03 | 0.03 | 99 | 1010.9 |
| 20260509043629 | 8 | 233 | 0.0 | 0.0 | 0.00 | 0.03 | 0.03 | 99 | 1011.0 |
| 20260509043125 | 8 | 233 | 0.0 | 0.0 | 0.00 | 0.03 | 0.03 | 99 | 1011.2 |
| 20260509042622 | 8 | 233 | 0.0 | 0.0 | 0.00 | 0.03 | 0.03 | 99 | 1011.2 |
| 20260509042118 | 8 | 233 | 0.0 | 0.0 | 0.00 | 0.03 | 0.03 | 99 | 1011.1 |
| 20260509041615 | 8 | 233 | 0.0 | 1.6 | 0.18 | 0.03 | 0.03 | 99 | 1011.2 |
| 20260509041112 | 8 | 233 | 0.0 | 0.0 | 0.18 | 0.03 | 0.03 | 99 | 1011.5 |
| 20260509040611 | 8 | 232 | 0.0 | 0.0 | 0.00 | 0.00 | 0.00 | 99 | 1011.5 |
| 20260509040107 | 8 | 232 | 0.0 | 0.0 | 0.00 | 0.00 | 0.00 | 99 | 1011.7 |
| 20260509035604 | 8 | 232 | 0.0 | 0.0 | 0.00 | 0.25 | 0.25 | 99 | 1011.6 |
| 20260509035100 | 8 | 232 | 0.0 | 0.0 | 0.00 | 0.25 | 0.25 | 99 | 1011.6 |
| 20260509034559 | 8 | 232 | 0.0 | 0.0 | 0.00 | 0.25 | 0.25 | 99 | 1011.6 |
| 20260509034055 | 8 | 232 | 0.0 | 0.0 | 0.00 | 0.25 | 0.25 | 99 | 1011.7 |
| 20260509033552 | 8 | 232 | 0.0 | 0.0 | 0.00 | 0.25 | 0.25 | 99 | 1012.0 |
| 20260509033049 | 8 | 232 | 0.0 | 0.0 | 0.00 | 0.25 | 0.25 | 99 | 1012.2 |
| 20260509032547 | 8 | 232 | 0.0 | 0.0 | 0.00 | 0.25 | 0.25 | 99 | 1012.1 |
| 20260509032043 | 8 | 232 | 0.0 | 0.0 | 0.00 | 0.25 | 0.25 | 99 | 1012.2 |
| 20260509031541 | 8 | 232 | 0.0 | 0.0 | 0.00 | 0.25 | 0.25 | 99 | 1012.1 |
| 20260509031038 | 8 | 232 | 0.0 | 0.0 | 0.13 | 0.25 | 0.25 | 99 | 1012.3 |
| 20260509030537 | 8 | 232 | 0.0 | 0.0 | 0.13 | 0.25 | 0.25 | 99 | 1012.3 |
| 20260509030033 | 8 | 232 | 0.0 | 0.0 | 0.00 | 0.23 | 0.23 | 99 | 1012.4 |
| 20260509025529 | 8 | 232 | 0.0 | 0.0 | 0.00 | 0.23 | 0.23 | 99 | 1012.5 |
| 20260509025025 | 8 | 232 | 0.0 | 0.0 | 0.18 | 0.23 | 0.23 | 99 | 1012.5 |
| 20260509024521 | 8 | 232 | 0.0 | 0.0 | 0.18 | 0.23 | 0.23 | 99 | 1012.4 |
| 20260509024017 | 9 | 232 | 0.0 | 1.6 | 0.00 | 0.20 | 0.20 | 99 | 1012.4 |
| 20260509023515 | 8 | 232 | 0.0 | 0.0 | 0.00 | 0.20 | 0.20 | 99 | 1012.5 |
| 20260509023012 | 9 | 232 | 0.0 | 0.0 | 0.13 | 0.20 | 0.20 | 99 | 1012.4 |
| 20260509022508 | 9 | 232 | 0.0 | 0.0 | 0.13 | 0.20 | 0.20 | 99 | 1012.3 |
| 20260509022006 | 9 | 232 | 0.0 | 0.0 | 0.00 | 0.18 | 0.18 | 99 | 1012.4 |
| 20260509021503 | 8 | 232 | 0.0 | 0.0 | 0.18 | 0.18 | 0.18 | 99 | 1012.4 |
| 20260509020959 | 8 | 232 | 0.0 | 0.0 | 0.18 | 0.18 | 0.18 | 99 | 1011.9 |
| 20260509020458 | 8 | 232 | 0.0 | 0.0 | 0.00 | 0.15 | 0.15 | 99 | 1012.1 |
| 20260509015954 | 8 | 232 | 0.0 | 0.0 | 0.00 | 0.15 | 0.15 | 99 | 1011.5 |
| 20260509015453 | 8 | 232 | 0.0 | 0.0 | 0.00 | 0.15 | 0.15 | 99 | 1012.0 |
| 20260509014950 | 8 | 232 | 0.0 | 0.0 | 0.00 | 0.15 | 0.15 | 99 | 1011.6 |
| 20260509014447 | 8 | 232 | 0.0 | 0.0 | 0.00 | 0.15 | 0.15 | 99 | 1011.7 |
| 20260509013943 | 8 | 232 | 0.0 | 0.0 | 0.00 | 0.15 | 0.15 | 99 | 1011.6 |
| 20260509013440 | 8 | 232 | 0.0 | 0.0 | 0.00 | 0.15 | 0.15 | 99 | 1011.7 |
| 20260509012936 | 8 | 232 | 0.0 | 0.0 | 0.00 | 0.15 | 0.15 | 99 | 1011.7 |
| 20260509012432 | 8 | 232 | 0.0 | 0.0 | 0.00 | 0.15 | 0.15 | 99 | 1011.6 |
| 20260509011929 | 9 | 232 | 0.0 | 0.0 | 0.00 | 0.15 | 0.15 | 99 | 1011.4 |
| 20260509011427 | 8 | 232 | 0.0 | 0.0 | 0.00 | 0.15 | 0.15 | 99 | 1011.4 |
| 20260509010925 | 8 | 232 | 0.0 | 0.0 | 0.00 | 0.15 | 0.15 | 99 | 1011.2 |
| 20260509010422 | 8 | 232 | 0.0 | 0.0 | 0.00 | 0.15 | 0.15 | 99 | 1011.1 |
| 20260509005918 | 9 | 232 | 0.0 | 0.0 | 0.00 | 0.15 | 0.15 | 99 | 1011.2 |
| 20260509005417 | 9 | 232 | 0.0 | 0.0 | 0.00 | 0.15 | 0.15 | 99 | 1011.0 |
| 20260509004916 | 8 | 232 | 0.0 | 0.0 | 0.00 | 0.15 | 0.15 | 99 | 1011.3 |
| 20260509004413 | 9 | 232 | 0.0 | 0.0 | 0.00 | 0.15 | 0.15 | 99 | 1011.4 |
| 20260509003911 | 9 | 232 | 0.0 | 0.0 | 0.00 | 0.15 | 0.15 | 99 | 1011.1 |
| 20260509003409 | 9 | 232 | 0.0 | 0.0 | 0.00 | 0.15 | 0.15 | 99 | 1011.2 |
| 20260509002905 | 9 | 232 | 0.0 | 0.0 | 0.00 | 0.15 | 0.15 | 99 | 1011.3 |
| 20260509002403 | 9 | 232 | 0.0 | 0.0 | 0.00 | 0.15 | 0.15 | 99 | 1011.1 |
| 20260509001901 | 9 | 232 | 0.0 | 0.0 | 0.00 | 0.15 | 0.15 | 99 | 1011.1 |
| 20260509001356 | 9 | 232 | 0.0 | 0.0 | 0.00 | 0.15 | 0.15 | 99 | 1010.9 |
| 20260509000854 | 9 | 232 | 0.0 | 0.0 | 0.00 | 0.15 | 0.15 | 99 | 1010.8 |
| 20260509000352 | 9 | 232 | 0.0 | 0.0 | 0.00 | 0.15 | 0.15 | 98 | 1010.9 |
| 20260508235848 | 9 | 232 | 0.0 | 0.0 | 0.00 | 0.15 | 0.15 | 98 | 1010.8 |
| 20260508235345 | 9 | 232 | 0.0 | 0.0 | 0.00 | 0.15 | 0.15 | 98 | 1010.7 |
| 20260508234842 | 10 | 232 | 0.0 | 0.0 | 0.00 | 0.15 | 0.15 | 98 | 1010.7 |
| 20260508234338 | 10 | 232 | 0.0 | 0.0 | 0.13 | 0.15 | 0.15 | 98 | 1010.8 |
| 20260508233837 | 10 | 232 | 0.0 | 0.0 | 0.13 | 0.15 | 0.15 | 97 | 1010.7 |
| 20260508233336 | 10 | 232 | 0.0 | 0.0 | 0.00 | 0.13 | 0.13 | 96 | 1010.7 |
| 20260508232832 | 10 | 232 | 0.0 | 0.0 | 0.00 | 0.13 | 0.13 | 96 | 1011.0 |
| 20260508232329 | 10 | 232 | 0.0 | 0.0 | 0.00 | 0.13 | 0.13 | 95 | 1011.3 |
| 20260508231827 | 10 | 232 | 0.0 | 0.0 | 0.00 | 0.13 | 0.13 | 94 | 1011.2 |
| 20260508231323 | 10 | 232 | 0.0 | 0.0 | 0.00 | 0.13 | 0.13 | 93 | 1011.0 |
| 20260508230820 | 10 | 232 | 0.0 | 0.0 | 0.00 | 0.13 | 0.13 | 94 | 1011.1 |
| 20260508230316 | 10 | 232 | 0.0 | 0.0 | 0.00 | 0.13 | 0.13 | 95 | 1011.0 |
| 20260508225814 | 10 | 232 | 0.0 | 0.0 | 0.00 | 0.13 | 0.13 | 96 | 1011.2 |
| 20260508225310 | 10 | 245 | 0.0 | 0.0 | 0.00 | 0.13 | 0.13 | 97 | 1011.1 |
| 20260508224808 | 10 | 245 | 0.0 | 0.0 | 0.00 | 0.13 | 0.13 | 96 | 1011.1 |
| 20260508224305 | 10 | 245 | 0.0 | 0.0 | 0.00 | 0.13 | 0.13 | 96 | 1011.0 |
| 20260508223803 | 10 | 245 | 0.0 | 0.0 | 0.00 | 0.13 | 0.13 | 95 | 1011.2 |
| 20260508223300 | 10 | 245 | 0.0 | 0.0 | 0.00 | 0.13 | 0.13 | 94 | 1011.4 |
| 20260508222758 | 10 | 245 | 0.0 | 0.0 | 0.00 | 0.13 | 0.13 | 93 | 1011.3 |
| 20260508222255 | 10 | 245 | 0.0 | 0.0 | 0.00 | 0.13 | 0.13 | 93 | 1011.3 |
| 20260508221751 | 10 | 245 | 0.0 | 0.0 | 0.00 | 0.13 | 0.13 | 94 | 1011.2 |
| 20260508221247 | 10 | 245 | 0.0 | 0.0 | 0.00 | 0.13 | 0.13 | 95 | 1011.3 |
| 20260508220743 | 10 | 245 | 0.0 | 0.0 | 0.00 | 0.13 | 0.13 | 96 | 1011.4 |
| 20260508220240 | 10 | 245 | 0.0 | 0.0 | 0.18 | 0.13 | 0.13 | 96 | 1011.6 |
| 20260508215736 | 10 | 245 | 0.0 | 0.0 | 0.18 | 0.13 | 0.13 | 96 | 1011.7 |
| 20260508215233 | 10 | 245 | 0.0 | 0.0 | 0.00 | 0.10 | 0.10 | 96 | 1011.6 |
| 20260508214730 | 10 | 245 | 0.0 | 0.0 | 0.13 | 0.10 | 0.10 | 95 | 1011.6 |
| 20260508214228 | 10 | 245 | 0.0 | 0.0 | 0.13 | 0.10 | 0.10 | 94 | 1011.6 |
| 20260508213724 | 10 | 245 | 0.0 | 0.0 | 0.00 | 0.08 | 0.08 | 93 | 1011.6 |
| 20260508213220 | 10 | 245 | 0.0 | 0.0 | 0.18 | 0.08 | 0.08 | 92 | 1011.6 |
| 20260508212717 | 10 | 245 | 0.0 | 0.0 | 0.18 | 0.08 | 0.08 | 91 | 1011.4 |
| 20260508212213 | 10 | 245 | 0.0 | 0.0 | 0.00 | 0.05 | 0.05 | 91 | 1011.4 |
| 20260508211709 | 10 | 245 | 0.0 | 0.0 | 0.00 | 0.05 | 0.05 | 90 | 1011.3 |
| 20260508211205 | 10 | 245 | 0.0 | 0.0 | 0.00 | 0.05 | 0.05 | 90 | 1011.4 |
| 20260508210703 | 11 | 245 | 0.0 | 0.0 | 0.00 | 0.05 | 0.05 | 89 | 1011.1 |
| 20260508210200 | 11 | 245 | 0.0 | 0.0 | 0.00 | 0.05 | 0.05 | 87 | 1011.4 |
| 20260508205656 | 11 | 246 | 0.0 | 0.0 | 0.18 | 0.05 | 0.05 | 87 | 1011.0 |
| 20260508205153 | 11 | 244 | 0.0 | 0.0 | 0.18 | 0.05 | 0.05 | 84 | 1011.2 |
| 20260508204649 | 11 | 234 | 0.0 | 0.0 | 0.00 | 0.03 | 0.03 | 86 | 1011.2 |
| 20260508204145 | 11 | 254 | 1.6 | 3.2 | 0.00 | 0.03 | 0.03 | 82 | 1011.5 |
| 20260508203642 | 11 | 230 | 0.0 | 3.2 | 0.00 | 0.03 | 0.03 | 84 | 1011.3 |
| 20260508203138 | 11 | 234 | 0.0 | 0.0 | 0.13 | 0.03 | 0.03 | 82 | 1011.5 |
| 20260508202634 | 11 | 235 | 0.0 | 0.0 | 0.13 | 0.03 | 0.03 | 79 | 1011.6 |